{"data":{"norad_id":64330,"intl_designator":"2025-124P","name":"STARLINK-34252","alt_names":[],"object_type":"PAYLOAD","status":"ACTIVE","operator":null,"country":"US","launch_date":"2025-06-10","launch_site_code":"AFETR","launch_vehicle":null,"mission":null,"orbit_class":"UNKNOWN","rcs_meters":null,"size_class":null,"mass_kg":null,"dimensions":null,"purposes":["comms"],"wikipedia_slug":null,"has_3d_model":false,"image_url":null,"decayed_at":null,"tle_current":{"epoch":"2026-05-25T02:17:16.581120Z","epoch_age_seconds":56996,"freshness":"FRESH","line1":"1 64330U 25124P   26145.09533080  .00025179  00000+0  92098-3 0  9990","line2":"2 64330  42.9999  50.3898 0000804 264.7522  95.3238 15.27594619 53460","mean_motion":15.27594619,"eccentricity":8.04e-5,"inclination_deg":42.9999,"raan_deg":50.3898,"arg_perigee_deg":264.7522,"mean_anomaly_deg":95.3238,"bstar":0.00092098,"rev_number":5346,"period_min":94.265846585834,"perigee_km":482.45368600092,"apogee_km":483.55695768627,"semimajor_km":6861.1423218436,"source":"CELESTRAK","updated_at":"2026-05-25T13:38:20.396688Z"}}}